User: anonymous   Login
Location: Unspecified
(0.0000°N, 0.0000°E)
Time: 14:18:23
(UTC+00:00)
Language:

COSMOS 2468 - Orbit

View from above orbital plane
View from above orbital plane
View from above satellite
View from above satellite

Ground track
Ground track

The orbit data is extracted from the following two-line orbital elements,

1 37154U 10043C   16242.10095144  .00000028  00000-0  12970-3 0  9999
2 37154  82.4634 142.9407 0013630 192.3988 167.6753 12.43625575271048
Epoch (UTC): 29 August 2016 02:25:22
Eccentricity: 0.0013630
inclination: 82.4634°
perigee height: 1480 km
apogee height: 1502 km
right ascension of ascending node: 142.9407°
argument of perigee: 192.3988°
revolutions per day: 12.43625575
mean anomaly at epoch: 167.6753°
orbit number at epoch: 27104

The dashed part of the orbit path shows where the satellite is in the earth's shadow,  

DLR